Dewpoint
57 57 57 57 57 57 57 56 56 57 57 58 58 58 58 59 58 49 31 39 43 61 57 34 35 31 31 23 20 17 12 16 23 24 37 47 46 48 47 49 52 51 55 58 58
57 57 57 57 57 57 57 56 56 56 57 57 58 58 58 59 42 30 48 61 64 62 32 29 23 27 21 19 17 14 12 14 26 31 35 45 40 48 47 49 52 55 58 59 58
57 57 57 57 57 56 56 57 56 56 57 57 58 58 58 56 34 27 62 65 65 57 31 32 30 25 18 18 16 14 13 16 21 33 35 40 39 44 41 43 48 52 55 57 57
56 57 56 56 56 56 56 56 56 56 56 57 57 58 59 48 23 31 64 65 65 36 31 31 26 20 16 17 19 12 15 18 22 37 37 37 39 40 37 38 43 48 52 55 52
56 56 56 56 56 56 55 56 55 55 55 56 57 58 49 34 28 46 66 60 36 30 28 27 22 20 17 19 19 17 16 20 30 40 36 35 33 34 36 44 45 49 52 48 44
56 56 55 55 55 55 55 55 55 55 55 56 57 58 41 30 35 43 38 36 29 28 28 27 25 26 24 20 19 21 17 18 28 35 37 31 35 33 40 46 48 50 48 44 43
56 55 55 55 55 55 55 54 55 55 55 56 58 48 32 28 33 42 36 28 29 28 25 27 27 26 27 24 25 21 18 19 24 27 29 29 30 29 39 45 46 47 46 43 43
56 55 55 55 55 54 55 54 56 54 55 57 58 42 27 28 34 35 33 30 32 31 30 28 27 27 27 29 25 19 18 16 21 24 28 30 22 27 40 43 43 45 45 43 44
54 55 55 55 54 54 54 54 55 55 57 57 47 37 20 40 34 32 32 27 29 31 32 26 27 27 26 24 22 23 16 17 20 25 29 29 23 27 39 41 41 44 44 43 44
53 54 54 54 54 53 53 54 57 56 51 45 40 34 26 27 31 31 34 30 26 28 27 27 26 21 21 21 17 20 19 20 20 21 25 27 24 28 37 39 40 42 42 42 43
54 53 53 54 53 52 49 41 39 38 39 32 24 23 29 30 33 29 30 28 26 27 25 28 23 18 19 21 20 20 19 19 20 23 23 25 26 27 34 37 38 40 42 43 45
53 53 53 53 52 52 46 35 36 36 32 31 29 30 30 32 29 26 27 24 25 23 25 25 22 21 23 25 23 22 21 21 22 23 26 25 26 27 33 37 37 38 40 43 45
52 53 53 52 51 45 39 36 35 37 34 28 30 29 27 29 27 27 24 23 22 22 22 21 21 25 25 25 22 21 20 21 21 22 24 25 25 27 30 36 38 39 41 43 45
52 52 52 51 45 39 36 38 35 39 27 23 24 27 28 27 28 28 26 24 22 21 21 21 21 23 24 22 23 23 22 21 21 22 17 24 16 27 28 33 37 39 40 42 45
51 52 51 50 44 35 39 37 37 40 15 19 27 30 26 25 28 28 28 25 22 21 23 19 19 23 22 21 23 20 20 19 20 20 21 19 17 17 28 29 32 37 38 39 41
51 51 50 46 45 39 37 39 41 27 12 25 27 26 24 23 25 29 29 28 25 22 23 21 21 21 21 22 21 25 24 24 24 19 21 19 17 11 19 27 28 34 38 39 40
51 50 48 42 40 40 40 39 27 17 18 25 25 24 22 23 25 26 26 26 23 23 24 21 20 20 20 21 25 23 25 22 19 18 14 22 18 18 28 33 37 38 40 42 43
49 49 46 40 41 41 40 34 25 15 16 30 28 27 25 22 24 23 25 23 25 24 22 19 18 21 20 20 21 22 24 32 29 18 14 25 23 28 37 40 41 40 41 42 41
48 38 41 42 43 43 35 26 21 20 26 27 26 25 26 25 24 24 25 23 23 26 25 23 18 21 20 20 21 23 22 26 26 26 23 18 26 29 34 38 41 39 41 41 42
41 36 38 42 46 42 30 27 26 30 33 30 22 29 26 26 26 25 25 26 27 26 28 27 25 21 21 22 26 25 26 26 25 30 24 19 23 22 29 32 37 38 40 42 43
41 31 39 43 44 38 28 25 26 33 35 30 27 29 30 27 27 26 25 25 28 24 27 27 30 25 20 21 22 25 23 27 32 30 32 28 22 28 28 31 33 36 37 41 42
39 26 39 44 38 37 31 28 38 32 37 34 33 28 28 27 27 25 27 29 30 28 27 30 33 26 24 23 22 23 25 29 27 31 35 33 30 30 33 34 38 36 41 42 41
33 30 42 45 31 32 37 33 34 31 33 33 31 32 34 28 29 28 29 30 31 30 31 35 34 28 26 26 26 23 25 28 32 36 30 39 32 35 38 38 39 40 41 42 45
35 28 36 39 39 39 37 35 34 35 35 37 33 37 35 31 32 29 29 31 33 33 46 43 36 33 36 25 24 28 25 25 32 28 30 30 31 30 36 36 41 42 43 44 46
34 34 39 35 36 37 38 38 35 35 37 37 39 37 36 36 34 34 34 35 34 43 36 42 36 33 29 27 26 26 25 24 27 28 28 27 26 30 33 37 41 44 44 44 44
34 34 36 34 36 36 35 37 36 36 36 36 37 36 37 39 38 38 38 38 37 39 37 39 39 38 35 30 25 23 23 24 25 23 26 28 30 31 41 42 42 43 43 43 44
40 40 37 33 30 30 32 34 34 34 34 36 35 35 36 40 44 44 44 44 43 41 37 36 35 38 35 34 30 26 26 27 25 27 27 27 30 39 41 41 42 43 44 44 43
Lifted_Index
13 13 13 13 13 13 13 13 13 13 12 12 12 11 11 10 9 9 8 9 9 9 9 8 8 7 7 7 6 5 3 2 2 1 -0 -1 -2 -2 -2 -2 -2 -3 -3 -3 -2
13 13 13 13 13 13 13 13 13 13 12 12 12 11 11 10 9 9 8 9 9 9 9 8 8 7 7 7 6 5 3 3 3 2 0 -1 -1 -2 -2 -2 -2 -3 -3 -3 -2
13 13 13 13 13 13 13 13 13 13 13 12 12 12 11 10 9 8 8 8 9 9 9 8 8 7 7 6 6 5 4 4 3 2 1 0 -0 -1 -1 -1 -2 -2 -2 -2 -2
13 13 14 14 13 13 13 13 13 13 13 13 12 12 10 9 8 8 8 8 9 9 8 8 8 7 7 6 6 5 5 5 4 2 1 1 1 0 0 0 -0 -1 -1 -1 -1
14 14 14 14 14 13 13 13 13 13 13 13 12 11 9 8 7 7 7 8 9 9 8 8 7 7 7 6 6 6 6 5 4 2 1 2 2 2 1 1 0 -0 -0 0 1
14 14 14 14 14 13 13 12 12 12 12 12 12 10 9 8 7 7 8 8 9 8 8 7 7 7 6 6 6 6 6 6 4 3 2 3 3 2 2 1 0 -0 0 2 2
14 14 14 14 14 13 12 11 11 11 11 11 11 10 8 8 8 8 8 9 9 8 8 8 7 7 6 6 6 6 6 6 5 4 4 3 3 3 2 1 0 0 1 2 3
14 14 14 14 14 13 12 10 9 9 10 10 10 9 8 8 8 8 8 9 8 8 8 8 7 7 6 5 5 5 5 5 5 5 4 4 3 3 2 1 1 0 1 2 3
14 14 14 13 13 13 11 9 8 8 9 9 9 9 9 8 8 8 8 8 8 8 8 8 7 7 6 5 5 4 4 4 5 5 4 4 3 3 2 1 1 0 1 2 2
15 15 14 13 13 12 11 9 8 8 8 8 8 8 8 8 8 8 8 8 8 8 7 7 7 6 6 5 4 4 4 4 4 5 4 4 3 3 2 1 1 0 1 1 2
15 15 15 14 13 12 11 9 8 8 8 8 8 8 8 7 7 8 8 8 8 7 7 6 6 6 6 5 5 4 4 4 4 5 4 3 3 3 2 2 1 1 0 1 1
15 15 15 14 13 12 10 9 8 8 7 7 8 8 7 7 7 8 8 8 7 7 6 6 5 5 5 5 5 5 4 4 4 5 4 3 3 3 2 2 1 1 1 1 1
15 15 15 14 13 11 10 9 9 8 7 7 7 7 7 7 7 7 8 7 7 7 6 6 5 5 5 5 5 5 4 4 4 4 4 3 3 3 3 2 1 1 1 1 1
15 15 15 13 12 11 10 10 9 8 6 6 7 7 7 7 7 7 7 7 7 6 6 6 5 5 5 5 5 5 5 5 5 4 4 4 3 3 3 2 2 1 1 1 1
15 15 14 13 11 11 11 10 9 6 5 5 7 7 7 7 6 6 7 7 6 6 6 5 5 5 5 5 5 5 5 5 5 4 4 4 3 2 3 3 2 2 1 1 1
15 15 14 12 10 10 11 10 8 5 4 5 6 6 6 6 6 6 6 6 6 6 5 5 5 5 5 5 5 5 5 5 4 4 3 3 3 2 2 3 2 2 2 1 1
14 14 13 11 10 10 10 9 6 5 5 5 5 5 5 5 5 5 5 5 5 5 5 5 5 5 5 5 5 4 4 3 3 2 2 3 3 2 2 2 2 1 1 1 1
13 13 12 10 9 8 8 7 6 5 5 5 4 4 4 4 4 4 4 4 4 4 4 4 4 4 5 4 4 4 3 2 2 1 1 2 2 2 2 2 1 1 1 0 0
12 11 10 9 8 7 7 6 6 5 5 4 3 3 3 3 3 3 4 4 4 3 3 3 3 4 4 4 4 4 3 3 2 1 1 1 2 2 2 1 1 0 0 0 0
11 10 8 8 7 6 6 5 5 5 4 3 3 2 2 2 2 2 3 3 3 3 2 2 2 3 4 4 4 3 3 3 2 1 1 1 1 2 2 1 1 0 0 0 0
10 9 8 7 6 5 5 5 5 4 3 3 3 2 2 2 2 2 2 2 2 2 2 1 1 1 2 3 3 3 3 2 1 1 0 0 1 2 2 1 1 0 0 0 1
9 8 7 6 5 4 4 4 4 4 3 3 3 3 2 2 2 2 2 1 1 1 1 0 0 0 1 1 2 2 2 2 1 0 0 0 0 1 1 1 0 0 -0 0 1
9 8 7 6 4 4 3 4 4 4 3 3 3 3 3 2 2 2 2 1 1 0 0 -0 -1 -1 -0 0 1 1 1 1 0 0 -0 -0 0 0 1 0 0 0 0 1 1
9 8 6 6 5 4 3 3 3 3 3 3 3 2 2 2 2 2 1 1 1 0 0 -0 -1 -1 -1 -1 -0 0 1 1 0 -0 -0 -0 -0 0 0 0 0 1 1 1 1
8 8 7 6 5 5 4 3 3 3 3 3 2 2 2 1 1 1 1 1 0 0 -0 -0 -1 -1 -1 -1 -1 -0 0 0 0 0 -0 -0 0 0 0 1 1 1 1 2 2
8 8 8 7 6 6 5 4 3 3 3 3 3 2 2 1 1 0 0 0 -0 -0 -0 -0 -1 -1 -0 -0 -0 -0 0 0 0 0 0 0 0 0 1 1 1 1 2 2 3
9 9 8 8 7 6 5 4 4 4 3 3 3 3 2 1 0 0 0 -0 -0 -1 -0 -0 -1 -1 0 1 0 -0 -0 0 0 0 0 0 0 0 1 1 1 1 2 3 4